Location: Spring Creek
(38.2870°N, 100.2160°W)
Time: 09:16:34
(UTC+00:00)

IRS-1C - Pass Details

Date: 08 May 2021
Orbit: 815 x 817 km, 98.9° (Epoch: 21 June)

Event Time Altitude Azimuth Distance (km) Brightness Sun altitude
Rises 09:30:39 0° 15° (NNE) 3,351 8.3 -21.2°
Reaches altitude 10° 09:33:00 10° 16° (NNE) 2,415 7.4 -20.9°
Maximum altitude 09:38:21 78° 103° (ESE) 838 4.2 -20.2°
Enters shadow 09:41:13 28° 186° (S) 1,473 5.0 -19.8°
